Flag for Canada Weather past 2 weeks in Rankin Inlet, Nunavut, Canada

Now
57 °F

Partly sunny.


Feels Like: 52 °F
Forecast: N/A
Wind: 24 mph from Northeast

Location: Rankin Inlet

Current Time: Jul 30, 2015 at 6:27:24 PM

Latest Report: Jul 30, 2015 at 6:00 PM


Visibility: 15 mi

Pressure: 29.68 "Hg

Humidity: 72%

Dew point: 48 °F

Location of Rankin InletLocation

Historic Weather in Rankin Inlet — Graph

°F

Rankin Inlet temperature yesterday

Maximum temperature yesterday: 57 °F (at 4:00 PM)
Minimum temperature yesterday: 48 °F (at 1:00 AM)
Average temperature yesterday: 52 °F

Past Weeks' High & Low Weather Summary

 TemperatureHumidityPressure
High66 °F (Jul 28, 1:00 PM)100% (Jul 16, 4:00 AM)29.97 "Hg (Jul 16, 4:00 AM)
Low41 °F (Jul 16, 4:00 AM)55% (Jul 17, 10:00 AM)29.44 "Hg (Jul 19, 7:52 AM)
Average49 °F90%29.76 "Hg
* Reported Jul 15 5:00 PM — Jul 30 5:00 PM, Rankin Inlet, Weather by CustomWeather, © 2015

Note: Actual official high and low records may vary slightly from our data, if they occured in-between our weather recording intervals... More about our weather records

Advertising

Rankin Inlet weather history for previous 24 hours

 ConditionsComfort  
Time TempWeatherWind HumidityBarometerVisibility
5:00 PM
Thu, Jul 30
59 °FPartly sunny.23 mph72%29.67 "Hg15 mi
4:00 PM57 °FPartly sunny.22 mph77%29.68 "Hg15 mi
3:00 PM57 °FLight rain. Overcast.23 mph82%29.67 "Hg10 mi
2:00 PM61 °FOvercast.21 mph68%29.67 "Hg15 mi
1:00 PM57 °FPartly sunny.26 mph77%29.66 "Hg15 mi
12:00 PM59 °FPartly sunny.24 mph68%29.67 "Hg15 mi
11:00 AM59 °FPartly sunny.21 mph72%29.67 "Hg15 mi
10:00 AM59 °FPartly sunny.21 mph72%29.67 "Hg15 mi
9:00 AM57 °FPartly sunny.20 mph77%29.67 "Hg15 mi
8:00 AM57 °FPartly sunny.20 mph82%29.68 "Hg15 mi
7:00 AM55 °FPartly sunny.17 mph88%29.70 "Hg15 mi
6:00 AM52 °FBroken clouds.14 mph100%29.70 "Hg15 mi
5:00 AM50 °FPassing clouds.13 mph100%29.69 "Hg15 mi
4:00 AM50 °FPassing clouds.10 mph94%29.70 "Hg10 mi
3:00 AM52 °FPassing clouds.8 mph94%29.71 "Hg10 mi
2:00 AM52 °FPartly cloudy.5 mph94%29.71 "Hg10 mi
1:00 AM52 °FPassing clouds.7 mph100%29.71 "Hg10 mi
12:00 AM52 °FPassing clouds.7 mph94%29.73 "Hg10 mi
11:00 PM
Wed, Jul 29
50 °FFog.2 mph94%29.72 "Hg6 mi
10:00 PM50 °FFog.3 mph100%29.73 "Hg6 mi
9:00 PM48 °FFog.10 mph94%29.74 "Hg0 mi
8:47 PM48 °FFog.10 mph94%29.74 "Hg0 mi
8:00 PM50 °FBroken clouds.10 mph88%29.73 "Hg15 mi
7:00 PM55 °FPartly sunny.3 mph82%29.73 "Hg15 mi
6:00 PM55 °FBroken clouds.No wind88%29.72 "Hg15 mi
Weather by CustomWeather, © 2015

See weather overviewHow to use our weather pages